[[{"header":{"parameterUnit":"m.s-1","parameterCategory":1,"la1":30.2991,"la2":30.254,"lo1":-89.0895,"lo2":-89.0444,"dy":0.0017,"dx":0.0017,"nx":28,"ny":28,"refTime":"2025-11-06T03:00:00:Z","depth":0,"parameterNumber":2,"parameterNumberName":"U-component_of_WINDS"},"data":[0,0,0,0,0,0,0,0,0,0,0,0,0,0,0,0,0,0,0,0,0,0,0,0,0,0,0,0,0,0,0,0,0,0,0,0,0,0,0,0,0,0,0,0,0,0,0,0,0,0,0,0,0,0,0,0,0,0,0.6836,0.6836,0,0.6852,0.6852,0.6853,0.6816,0.6815,0.6814,0.6813,0.6831,0.6832,0.6834,0,0,0,0,0,0,0,0,0,0,0,0,0,0.6774,0.6776,0.6836,0.6836,0.6836,0.6852,0.6852,0.6853,0.6817,0.6815,0.6814,0.6812,0.683,0.6832,0.6834,0,0,0,0,0,0,0,0,0,0,0,0,0,0.6797,0.6776,0.6836,0.682,0.6819,0.6852,0.6852,0.6853,0.6817,0.6815,0.6813,0.6812,0.683,0.6832,0.6834,0.6884,0,0,0.6842,0.6843,0,0,0,0,0,0,0,0,0.6796,0.6799,0.6822,0.6821,0.682,0.683,0.6837,0.6863,0.6817,0.6818,0.6813,0.6811,0.6832,0.6834,0.6841,0.6885,0.6886,0.6842,0.6843,0.6844,0.6845,0,0,0,0,0,0,0,0.6794,0.6798,0.6842,0.6823,0.6821,0.6813,0.6814,0.6842,0.6835,0.6817,0.6815,0.6817,0.6831,0.6839,0.6841,0.6886,0.6842,0.6844,0.6845,0.6846,0.6971,0.6973,0,0,0,0,0,0,0.6795,0.6797,0.6842,0.6843,0.6803,0.6815,0.6817,0.6829,0.6834,0.6833,0.6819,0.6816,0.6836,0.6839,0.6842,0.6901,0.6844,0.6846,0.6848,0.6969,0.6972,0.6974,0,0,0,0,0,0,0.6793,0.6799,0.6841,0.6819,0.6824,0.6818,0.6832,0.683,0.6838,0.6835,0.6834,0.6828,0.6835,0.6839,0.6874,0.6901,0.6847,0.685,0.6967,0.697,0.6973,0.7018,0,0,0,0,0,0,0.6792,0.6799,0.6817,0.682,0.6825,0.6873,0.6834,0.6832,0.6842,0.6838,0.6843,0.6843,0.6834,0.687,0.6876,0.6903,0.6851,0.6965,0.6968,0.6972,0.7014,0.7022,0.7029,0,0,0,0,0,0.679,0.6829,0.6818,0.6824,0.6848,0.6874,0.6877,0.6866,0.6844,0.6863,0.6861,0.6843,0.6897,0.6874,0.688,0.6908,0.6963,0.6967,0.6971,0.7011,0.7021,0.7029,0,0,0,0,0,0,0.683,0.683,0.6817,0.6859,0.6867,0.6868,0.6891,0.6876,0.6891,0.6886,0.6871,0.6873,0.6911,0.6913,0.6888,0.6957,0.6926,0.6932,0.6954,0.6963,0.6971,0.697,0.6853,0,0,0,0,0,0.6844,0.6865,0.6863,0.69,0.6905,0.6897,0.6908,0.6899,0.6906,0.6909,0.691,0.6919,0.6938,0.6951,0.6968,0.7014,0.7015,0.7036,0.7044,0.705,0.7055,0.708,0.709,0.6988,0.6988,0.6988,0,0,0.6873,0.6875,0.6889,0.6908,0.6913,0.6935,0.69,0.6925,0.6942,0.6913,0.6947,0.6948,0.6956,0.6997,0.7015,0.7,0.7084,0.7055,0.706,0.7062,0.7086,0.7095,0.7104,0.6991,0.699,0.699,0,0,0.6936,0.694,0.6971,0.6977,0.6985,0.698,0.6987,0.6991,0.699,0.7023,0.7003,0.7022,0.7055,0.7062,0.707,0.7137,0.712,0.7143,0.7182,0.7206,0.7214,0.7221,0.7246,0.7254,0.7148,0.7148,0.7148,0,0.6971,0.7003,0.6989,0.7016,0.7025,0.7,0.7032,0.7039,0.7052,0.7059,0.7042,0.7083,0.7086,0.7129,0.7145,0.7152,0.7161,0.7142,0.7214,0.7221,0.7228,0.7251,0.726,0.7151,0.715,0.715,0.715,0,0.7046,0.7069,0.7093,0.7106,0.7119,0.7148,0.7139,0.7153,0.7142,0.7139,0.7173,0.7177,0.7195,0.7204,0.7194,0.7246,0.7236,0.7217,0.7186,0.724,0.7262,0.727,0.7155,0.7154,0.7153,0.7152,0,0,0.7135,0.7141,0.715,0.7156,0.7163,0.7181,0.7209,0.7226,0.7238,0.7248,0.7272,0.73,0.7283,0.7292,0.7282,0.7304,0.7357,0.7282,0.7282,0.7296,0.7414,0.7429,0.7439,0.7346,0.7347,0.7349,0.7414,0,0.7199,0.7247,0.7235,0.7283,0.7304,0.7281,0.7306,0.7313,0.7311,0.7329,0.7326,0.7347,0.7322,0.7327,0.7347,0.7346,0.738,0.7341,0.7368,0.7369,0.7367,0.745,0.7466,0.7527,0.7422,0.7423,0.7424,0,0.7279,0.7292,0.7342,0.7346,0.7354,0.7377,0.7392,0.7409,0.7417,0.7414,0.7424,0.741,0.7438,0.7407,0.7446,0.742,0.743,0.7431,0.7433,0.7435,0.74,0.7456,0.7547,0.7556,0.7437,0.7436,0.7435,0,0.734,0.737,0.7404,0.7409,0.7415,0.7431,0.7434,0.744,0.7451,0.7465,0.7472,0.7488,0.7497,0.751,0.7502,0.7479,0.7542,0.751,0.7541,0.7541,0.7556,0.7555,0.765,0.7562,0.7562,0.7561,0.7561,0,0.7412,0.7443,0.7431,0.7452,0.7487,0.7474,0.7509,0.7509,0.7515,0.7536,0.7516,0.7536,0.7523,0.7542,0.7536,0.7569,0.7574,0.7572,0.757,0.7574,0.7575,0.7581,0.7577,0.7564,0.7563,0.7563,0.7562,0,0.7486,0.7479,0.7514,0.7516,0.7518,0.7543,0.7545,0.7565,0.7562,0.7588,0.7594,0.7588,0.761,0.7602,0.7625,0.7621,0.7664,0.7656,0.7661,0.7659,0.7691,0.7688,0.7794,0.7808,0.771,0.7711,0.7712,0,0.7532,0.7556,0.7561,0.7573,0.7578,0.7598,0.7609,0.7598,0.761,0.7621,0.764,0.7659,0.7674,0.771,0.7708,0.7726,0.7719,0.7755,0.7721,0.7725,0.772,0.7719,0.7721,0.7761,0.7763,0.7763,0.7764,0,0.7616,0.7611,0.7628,0.7644,0.7658,0.767,0.7681,0.7692,0.7681,0.7696,0.7718,0.7729,0.7753,0.7773,0.7789,0.7792,0.7777,0.7775,0.7783,0.7787,0.779,0.7789,0.768,0.7772,0.7772,0.7771,0.7771,0.777,0.7678,0.7698,0.7705,0.7724,0.7731,0.7741,0.776,0.7759,0.7776,0.7795,0.7786,0.7812,0.7819,0.7839,0.7845,0.7864,0.7851,0.7862,0.7865,0.7869,0.7873,0.7786,0.7867,0.7867,0.7867,0.7867,0.7866,0,0.776,0.7764,0.7782,0.7797,0.7813,0.7796,0.7807,0.7821,0.7844,0.7852,0.7868,0.7893,0.7912,0.7912,0.793,0.7946,0.794,0.7951,0.795,0.7952,0.7884,0.7875,0.7957,0.7957,0.7957,0.7957,0.7957,0.7956,0.7805,0.7839,0.7835,0.7872,0.7875,0.79,0.7907,0.7917,0.7923,0.7952,0.7968,0.7968,0.7973,0.7992,0.8009,0.8009,0.8016,0.8031,0.8028,0.7965,0.7956,0.7948,0.7939,0.8033,0.8033,0.8094,0.8094,0.8095]},{"header":{"parameterUnit":"m.s-1","parameterCategory":1,"la1":30.2991,"la2":30.254,"lo1":-89.0895,"lo2":-89.0444,"dy":0.0017,"dx":0.0017,"nx":28,"ny":28,"refTime":"2025-11-06T03:00:00:Z","depth":0,"parameterNumber":3,"parameterNumberName":"V-component_of_WINDS"},"data":[0,0,0,0,0,0,0,0,0,0,0,0,0,0,0,0,0,0,0,0,0,0,0,0,0,0,0,0,0,0,0,0,0,0,0,0,0,0,0,0,0,0,0,0,0,0,0,0,0,0,0,0,0,0,0,0,0,0,4.2443,4.2443,0,4.2458,4.2458,4.2458,4.2408,4.2407,4.2405,4.2404,4.2416,4.2417,4.2419,0,0,0,0,0,0,0,0,0,0,0,0,0,4.237,4.2371,4.2443,4.2443,4.2443,4.2457,4.2458,4.2458,4.2408,4.2407,4.2405,4.2403,4.2415,4.2417,4.2419,0,0,0,0,0,0,0,0,0,0,0,0,0,4.2395,4.2372,4.2443,4.242,4.2419,4.2457,4.2458,4.2458,4.2409,4.2406,4.2404,4.2402,4.2415,4.2417,4.242,4.248,0,0,4.2427,4.2428,0,0,0,0,0,0,0,0,4.2393,4.2397,4.2424,4.2422,4.242,4.2429,4.2436,4.2465,4.2409,4.2412,4.2404,4.2401,4.2422,4.2424,4.2431,4.2481,4.2481,4.2428,4.2429,4.243,4.2431,0,0,0,0,0,0,0,4.2391,4.2396,4.2449,4.2424,4.2422,4.2409,4.241,4.2441,4.2429,4.2412,4.2408,4.2411,4.242,4.2429,4.2431,4.2481,4.2427,4.243,4.2431,4.2432,4.2582,4.2584,0,0,0,0,0,0,4.2393,4.2395,4.2448,4.2449,4.2401,4.2412,4.2413,4.2428,4.2429,4.2427,4.2413,4.2409,4.2425,4.2428,4.2431,4.2503,4.243,4.2433,4.2434,4.2579,4.2582,4.2585,0,0,0,0,0,0,4.2392,4.2398,4.2447,4.2421,4.2426,4.2415,4.2433,4.243,4.2438,4.243,4.2427,4.2424,4.2424,4.2428,4.2469,4.2503,4.2434,4.2436,4.2577,4.258,4.2584,4.2646,0,0,0,0,0,0,4.239,4.2398,4.2422,4.2422,4.2428,4.2486,4.2435,4.2432,4.2443,4.2438,4.2439,4.2437,4.2422,4.2465,4.2471,4.2505,4.2438,4.2573,4.2578,4.2583,4.2641,4.2652,4.2661,0,0,0,0,0,4.2387,4.2438,4.2423,4.243,4.2457,4.2488,4.2491,4.2474,4.2446,4.2469,4.2464,4.2437,4.2498,4.247,4.2476,4.2511,4.2571,4.2577,4.2582,4.2637,4.265,4.2661,0,0,0,0,0,0,4.244,4.2437,4.2421,4.2473,4.2481,4.2479,4.2508,4.2488,4.2503,4.2497,4.2474,4.2474,4.252,4.2519,4.2488,4.257,4.253,4.2537,4.2569,4.2581,4.2591,4.259,4.244,0,0,0,0,0,4.2458,4.2484,4.248,4.2526,4.2531,4.2519,4.2532,4.2518,4.2525,4.2527,4.2525,4.2532,4.2553,4.2567,4.2585,4.2641,4.2641,4.2668,4.2678,4.2686,4.2692,4.2723,4.2735,4.2603,4.2603,4.2603,0,0,4.2495,4.2496,4.2514,4.2537,4.2541,4.2568,4.2522,4.2552,4.2572,4.2531,4.2571,4.2569,4.2575,4.2625,4.2646,4.2625,4.2729,4.2693,4.2699,4.2701,4.273,4.2742,4.2753,4.2607,4.2606,4.2605,0,0,4.2576,4.258,4.2619,4.2625,4.2633,4.2625,4.2635,4.2636,4.2634,4.2673,4.2644,4.2666,4.2702,4.2708,4.2716,4.2801,4.2777,4.2807,4.2858,4.2888,4.2899,4.2908,4.2939,4.295,4.2813,4.2814,4.2814,0,4.262,4.2661,4.2642,4.2675,4.2686,4.2652,4.2692,4.2698,4.2711,4.2719,4.2696,4.2741,4.2743,4.2794,4.2814,4.2821,4.2832,4.2807,4.2899,4.2908,4.2916,4.2945,4.2957,4.2817,4.2817,4.2816,4.2816,0,4.2716,4.2744,4.2775,4.279,4.2805,4.2841,4.2827,4.2843,4.2828,4.2822,4.2863,4.2864,4.2882,4.2893,4.2878,4.2942,4.2929,4.2903,4.2862,4.2933,4.296,4.2971,4.2823,4.2821,4.282,4.2819,0,0,4.283,4.2836,4.2848,4.2855,4.2862,4.2883,4.2917,4.2936,4.2951,4.2961,4.299,4.3021,4.2998,4.3007,4.2992,4.3018,4.3086,4.2988,4.2988,4.3007,4.3157,4.3178,4.3191,4.307,4.3072,4.3074,4.3157,0,4.2911,4.2972,4.2956,4.3016,4.3042,4.3011,4.3041,4.3048,4.3043,4.3064,4.3058,4.3082,4.3048,4.3053,4.3078,4.3073,4.3116,4.3066,4.3096,4.3098,4.3097,4.3205,4.3227,4.3306,4.3168,4.3169,4.3171,0,4.3013,4.303,4.3093,4.3096,4.3107,4.3134,4.3151,4.3172,4.3179,4.3174,4.3184,4.3165,4.3198,4.3156,4.3202,4.3169,4.318,4.318,4.3182,4.3185,4.3139,4.3212,4.333,4.3343,4.3187,4.3186,4.3185,0,4.3092,4.313,4.3173,4.3179,4.3184,4.3204,4.3207,4.3212,4.3225,4.324,4.3248,4.3265,4.3275,4.3289,4.3275,4.3245,4.3323,4.328,4.332,4.332,4.3338,4.3338,4.3461,4.3344,4.3344,4.3344,4.3343,0,4.3185,4.3225,4.3208,4.3235,4.3279,4.326,4.3304,4.3303,4.3308,4.3333,4.3306,4.333,4.3309,4.3331,4.3319,4.336,4.3364,4.336,4.3357,4.3364,4.3364,4.3371,4.3366,4.3347,4.3346,4.3345,4.3345,0,4.3281,4.3271,4.3316,4.3318,4.3319,4.3352,4.3352,4.3376,4.337,4.3403,4.3409,4.3399,4.3423,4.341,4.3435,4.3427,4.348,4.3468,4.3478,4.3476,4.3517,4.3514,4.365,4.3667,4.3538,4.3539,4.354,0,4.3341,4.3372,4.3377,4.3393,4.3398,4.3423,4.3437,4.3419,4.3434,4.3446,4.3469,4.3491,4.3509,4.3549,4.3544,4.3563,4.3552,4.3599,4.3555,4.3561,4.3554,4.3553,4.3557,4.3608,4.3609,4.3611,4.3612,0,4.345,4.3444,4.3465,4.3485,4.3503,4.3517,4.3529,4.3543,4.3526,4.3545,4.357,4.3584,4.361,4.3633,4.365,4.3651,4.3629,4.3625,4.3636,4.3643,4.3648,4.3648,4.3504,4.3622,4.3621,4.3621,4.362,4.362,4.353,4.3556,4.3565,4.359,4.3597,4.361,4.3633,4.363,4.3652,4.3673,4.3661,4.3691,4.3698,4.3718,4.3723,4.3746,4.3727,4.3742,4.3746,4.375,4.3756,4.3644,4.3748,4.3748,4.3748,4.3747,4.3747,0,4.3638,4.3643,4.3666,4.3685,4.3704,4.3682,4.3695,4.3712,4.374,4.3749,4.3767,4.3797,4.3819,4.3815,4.3835,4.3855,4.3845,4.3861,4.3859,4.386,4.3771,4.3761,4.3868,4.3868,4.3868,4.3868,4.3868,4.3868,4.3697,4.3741,4.3736,4.3783,4.3786,4.3817,4.3826,4.3837,4.3844,4.3879,4.3898,4.3896,4.39,4.392,4.394,4.3938,4.3947,4.3967,4.3962,4.3878,4.3867,4.3855,4.3845,4.3969,4.3969,4.4049,4.405,4.405]}]]